Starlink 3691

operational
NORAD ID: 51960 Int'l Des: 2022-025 Owner: SPXS Country: US Constellation: starlink
LEOCIRCULARSTARLINK_TYPE

Über Starlink 3691

Beschreibung wird geladen...

Live-Position

3D-Globus wird geladen...

Nächste Überflüge

Höhenverlauf

Altitude vs Time

uPlot chart will show altitude changes over time

Zweizeiliger Elementsatz

1 51960U 22025E 25258.97471676 .00000343 00000-0 41899-4 0 9996
2 51960 53.0548 100.1728 0001493 90.8608 269.2552 15.06399966194510
Epoch: 15. Sept. 2025 • Age: 13 hours

Aktueller Status

Höhe 547.1 km
Geschwindigkeit 7.59 km/s
Subsatellitenpunkt 18.04°N, 75.44°E
Startdatum 9. März 2022
Alter 3.5 years
Typ internet

Technische Details

Klassifizierung Payload
Masse 297.00 kg
Trockenmasse 275.00 kg
Gesamtmasse 297.00 kg
Länge 0.20 m
Durchmesser 2.80 m
Spannweite 9.00 m
Form Box + pan
Hersteller SPXS
Bus-Typ Starlink
Phasenstatus In Orbit
Besitzer/Staat SPXS/US

Große Konstellationen

Loading constellations...